Wind_Speed
22 24 22 21 19 18 18 17 17 16 14 13 12 11 11 11 11 11 10 9 9 10 9 10 11 11 10 9 8 6 4 2
19 21 22 20 19 18 17 17 17 16 16 15 13 12 11 12 12 12 10 11 11 10 10 11 12 11 12 11 10 10 6 2
14 21 22 20 18 16 15 14 14 14 14 14 14 14 14 14 15 14 13 13 12 10 12 13 13 13 12 13 13 12 8 3
15 19 21 19 17 17 16 15 14 14 14 14 14 14 14 15 15 16 15 15 14 13 14 14 14 15 14 14 16 15 10 9
19 17 17 21 16 14 14 17 16 16 16 15 15 15 14 15 15 16 17 16 17 16 15 14 17 16 15 17 17 17 12 13
20 18 16 16 20 14 17 15 17 20 19 18 17 17 17 20 23 20 21 19 19 19 18 20 21 18 18 15 18 19 16 16
22 20 16 15 15 14 17 19 18 17 17 18 19 19 20 20 22 23 23 21 22 22 25 24 22 20 23 22 20 18 20 20
25 24 19 17 12 13 13 4 14 21 23 22 21 20 18 22 24 25 24 23 24 26 27 26 24 21 23 27 26 22 23 20
15 26 23 19 14 7 14 7 4 2 1 27 27 26 24 25 24 24 25 23 20 24 27 30 28 28 25 27 25 28 26 26
21 21 19 14 9 7 8 6 11 13 8 4 17 27 27 24 24 26 25 25 25 27 27 33 35 33 31 29 29 29 27 27
25 18 12 10 5 3 2 2 6 10 13 12 9 14 23 27 27 26 27 27 30 30 34 31 33 34 33 33 32 33 34 30
22 24 18 12 10 8 5 4 5 5 7 8 13 17 19 22 25 27 27 27 28 29 34 31 30 35 32 30 33 34 35 36
17 18 17 18 17 12 7 9 5 5 5 7 9 11 15 18 22 28 29 31 32 32 32 30 32 32 28 25 28 33 36 38
18 17 16 15 14 13 8 8 6 8 8 10 11 14 15 16 20 24 27 29 32 33 31 28 28 30 23 12 6 19 30 39
14 13 10 11 10 7 8 7 8 9 8 12 15 16 15 16 19 24 26 28 30 29 30 27 25 23 34 16 2 6 7 26
9 8 9 8 9 9 8 8 11 11 14 15 14 13 14 19 19 18 19 22 27 30 34 31 27 23 22 33 32 5 3 3
7 7 8 9 11 13 12 14 17 21 23 22 22 21 22 19 15 16 17 16 18 19 20 22 26 25 29 23 34 31 18 4
7 7 10 12 14 17 19 18 21 23 24 25 25 24 27 20 20 18 19 21 19 17 17 17 19 21 22 24 21 13 19 13
10 10 10 13 17 18 19 20 19 20 23 25 24 25 26 25 20 20 24 25 20 18 17 19 19 18 17 19 21 23 25 20
10 11 13 14 15 19 22 21 20 20 23 25 26 26 27 27 25 26 29 31 26 20 18 16 15 19 19 16 16 18 20 22
Wind_Direction
175 184 186 186 186 187 185 185 188 189 194 200 202 205 204 200 199 196 194 195 209 205 209 212 205 204 207 204 200 211 255 24
180 186 188 190 190 192 192 191 193 194 198 202 209 211 207 204 201 202 208 214 225 219 225 224 221 207 205 208 203 202 243 351
171 187 192 193 194 193 196 198 199 203 205 207 211 211 208 204 207 207 212 232 230 234 225 224 229 219 208 206 203 202 239 233
175 176 184 194 201 206 208 207 209 212 216 217 218 218 216 218 217 217 221 234 243 252 237 226 223 228 228 215 207 204 237 235
174 173 182 186 183 210 211 220 224 227 225 226 225 221 219 226 224 218 217 234 245 248 243 230 235 230 229 225 215 209 231 214
181 175 168 177 183 211 217 213 224 227 226 227 225 224 218 229 222 223 218 241 243 252 251 248 248 237 230 229 227 215 229 224
187 183 175 167 184 200 219 219 225 227 222 222 227 225 220 230 228 226 228 238 245 250 251 249 248 239 228 232 235 228 227 223
191 188 182 174 161 205 209 235 235 236 229 225 220 224 227 223 231 232 237 237 243 244 248 243 243 242 232 232 238 232 227 231
148 191 186 180 165 179 217 252 256 86 358 237 230 223 226 227 231 235 239 241 241 244 244 242 243 238 236 230 234 225 220 230
78 160 175 173 161 171 204 232 251 277 321 326 236 230 221 229 235 247 240 241 247 247 244 237 233 236 234 231 230 228 222 226
73 85 112 127 119 144 166 231 285 276 288 286 259 240 241 245 247 254 248 248 249 251 250 250 226 230 234 233 230 230 234 231
70 70 87 87 89 84 75 49 17 335 326 301 281 271 262 258 257 254 253 255 255 257 256 247 231 233 238 236 234 235 235 233
65 66 62 77 68 65 74 42 9 345 325 316 307 289 284 278 264 259 264 262 260 262 263 260 253 242 235 233 240 240 234 231
71 63 54 62 61 49 36 8 346 340 312 300 294 288 290 284 278 275 275 280 276 268 263 258 258 242 232 250 244 247 238 232
68 68 68 48 44 30 15 8 358 336 332 309 311 302 298 286 281 281 282 284 278 278 276 263 256 249 233 213 207 229 207 231
73 55 48 52 19 2 346 334 320 309 316 317 313 294 296 296 288 285 284 277 276 279 276 270 266 261 245 234 234 190 246 315
77 69 45 18 360 352 330 311 309 309 307 306 303 305 305 291 290 291 284 288 293 294 293 288 283 290 239 242 235 234 225 185
73 50 23 10 354 340 329 331 327 311 305 303 304 305 306 286 294 290 292 296 301 304 303 301 302 300 302 260 260 255 228 224
64 36 15 351 338 335 332 321 319 318 321 317 309 309 314 304 296 296 293 295 290 291 297 303 307 312 305 296 288 274 270 273
44 12 351 341 336 332 325 322 325 321 317 316 308 314 322 319 311 315 306 297 286 281 279 282 287 303 307 306 295 292 295 288
Height
788 791 794 797 799 802 804 806 810 812 814 817 819 821 823 825 827 829 830 832 834 833 833 832 833 834 836 837 838 839 840 842
787 791 794 798 801 803 805 807 809 811 813 815 817 820 822 824 826 829 830 830 832 833 833 833 832 831 833 835 836 837 837 838
785 789 794 798 802 805 807 809 811 812 814 815 817 818 820 822 825 826 828 829 830 830 831 833 833 831 831 832 834 835 836 836
785 787 791 797 802 805 807 809 811 813 815 816 817 819 820 822 823 825 826 828 829 830 829 829 830 830 831 831 831 833 834 836
786 789 791 795 800 804 806 808 810 812 813 814 816 818 819 820 822 823 826 828 828 828 828 829 829 828 828 829 830 830 831 833
785 788 791 794 798 801 803 805 806 807 809 810 813 815 817 818 819 820 822 824 826 827 827 826 826 828 828 828 829 828 828 828
785 787 790 794 797 801 803 804 805 805 806 808 809 811 813 815 817 818 819 820 822 823 822 823 823 823 826 827 827 827 826 826
783 785 787 791 795 798 801 803 805 805 806 806 806 808 811 813 813 814 815 816 817 818 819 819 819 820 820 822 824 825 824 824
780 783 787 788 792 796 799 801 802 804 805 804 805 807 808 809 811 810 810 813 813 815 816 816 817 817 816 817 818 820 820 818
783 784 790 792 795 796 798 800 802 802 803 803 803 803 803 806 807 808 808 810 811 812 811 811 810 812 812 812 812 815 816 814
788 791 793 794 796 797 798 799 800 800 800 802 803 804 804 804 802 802 805 805 805 805 805 805 804 806 806 807 808 808 809 810
790 791 792 796 798 798 800 801 801 801 800 799 800 799 800 801 800 800 800 801 801 801 801 799 798 798 800 800 801 800 802 804
794 794 796 796 797 799 800 800 800 800 799 799 797 796 796 796 796 796 795 795 794 794 795 795 794 794 794 793 793 794 793 796
798 798 798 799 799 801 801 801 800 800 799 798 798 797 796 794 793 792 791 790 789 789 789 788 787 787 787 788 787 787 786 787
799 800 800 800 801 802 801 801 800 799 798 798 797 795 795 794 793 791 789 789 786 785 785 784 783 781 782 782 787 782 778 777
800 800 801 801 802 801 801 801 800 799 798 796 795 794 792 790 788 787 786 785 782 782 781 779 779 776 777 776 775 774 779 777
799 800 801 801 801 801 801 800 799 797 796 795 794 793 791 789 787 784 784 784 781 778 777 777 774 773 766 766 767 767 768 770
797 798 799 800 801 801 800 798 797 795 794 792 790 789 789 788 786 784 782 781 779 777 775 773 772 770 766 764 762 761 757 761
797 798 799 800 800 799 798 796 794 793 792 791 789 787 787 785 784 781 779 777 776 774 772 770 768 766 762 761 760 756 757 757
797 797 798 797 797 796 794 793 791 789 788 787 785 785 784 783 781 780 778 775 772 769 766 763 762 762 760 757 755 754 753 755